^^
Saratoga-Weather Station Historical Data
Daily Summary for April 2, 2020 Units:  English    Metric   Both
Daily Weekly Monthly Yearly Custom
  High: Low: Average:
Temperature: 78.3 °F 66.7 °F 72.1 °F
Dew Point: 63.7 °F 51.1 °F 57.2 °F
Humidity: 86% 40% 61%
Wind Speed: 13mph 0mph 3.8mph
Wind Gust: 15mph - -
Wind- - West
Pressure: 30 in 29.9 in -
Precipitation: 0 in    
Historical Graphs
 
 
Tabular Data for April 2, 2020
Time Temperature Dew Point Pressure Wind Wind Speed Wind Gust Humidity Rainfall Rate (Hourly) solar
00:00 74.8 °F 62.2 °F 29.9 in WSW 4.9 mph 8 mph 65% 0 in 0 W/m2
00:10 74.7 °F 62.6 °F 29.9 in West 6.9 mph 9 mph 66% 0 in 0 W/m2
00:15 74.5 °F 62.4 °F 29.9 in West 4 mph 8 mph 66% 0 in 0 W/m2
00:20 74.5 °F 62.8 °F 29.9 in NW 4.9 mph 7 mph 67% 0 in 0 W/m2
00:25 74.3 °F 62.6 °F 29.9 in West 2 mph 9 mph 67% 0 in 0 W/m2
00:30 74.1 °F 62.4 °F 29.9 in NW 2 mph 7 mph 67% 0 in 0 W/m2
00:35 73.9 °F 62.8 °F 29.9 in WSW 2.9 mph 9 mph 68% 0 in 0 W/m2
00:40 73.8 °F 63 °F 29.9 in WSW 4.9 mph 7 mph 69% 0 in 0 W/m2
00:45 73.6 °F 62.8 °F 29.9 in NW 2.9 mph 3 mph 69% 0 in 0 W/m2
00:50 73.4 °F 62.6 °F 29.9 in WSW 2 mph 4 mph 69% 0 in 0 W/m2
00:55 73.2 °F 62.8 °F 29.9 in West 4 mph 8 mph 70% 0 in 0 W/m2
01:00 73.2 °F 62.8 °F 29.9 in West 2 mph 3 mph 70% 0 in 0 W/m2
01:06 73 °F 62.6 °F 29.9 in West 4 mph 8 mph 70% 0 in 0 W/m2
01:11 72.9 °F 62.4 °F 29.9 in West 2 mph 3 mph 70% 0 in 0 W/m2
01:16 72.7 °F 62.2 °F 29.9 in West 2 mph 8 mph 70% 0 in 0 W/m2
01:21 72.7 °F 62.8 °F 29.9 in WSW 2.9 mph 4 mph 71% 0 in 0 W/m2
01:26 72.3 °F 62.4 °F 29.9 in West 0.9 mph 6 mph 71% 0 in 0 W/m2
01:31 72.3 °F 62.4 °F 29.9 in Calm   1 mph 71% 0 in 0 W/m2
01:36 72.1 °F 62.2 °F 29.9 in West 2 mph 4 mph 71% 0 in 0 W/m2
01:41 72.1 °F 62.2 °F 29.9 in West 2 mph 3 mph 71% 0 in 0 W/m2
01:46 72.1 °F 62.2 °F 29.9 in WSW 2.9 mph 3 mph 71% 0 in 0 W/m2
01:51 72.1 °F 62.2 °F 29.9 in West 0.9 mph 3 mph 71% 0 in 0 W/m2
01:56 72.1 °F 62.2 °F 29.9 in West 0.9 mph 2 mph 71% 0 in 0 W/m2
02:01 72.1 °F 62.2 °F 29.9 in West 2.9 mph 3 mph 71% 0 in 0 W/m2
02:06 72.1 °F 62.2 °F 29.9 in WSW 0.9 mph 3 mph 71% 0 in 0 W/m2
02:11 72.1 °F 62.2 °F 29.9 in West 2.9 mph 3 mph 71% 0 in 0 W/m2
02:16 72.1 °F 62.6 °F 29.9 in WSW 4.9 mph 6 mph 72% 0 in 0 W/m2
02:21 72.1 °F 62.6 °F 29.9 in WNW 2.9 mph 3 mph 72% 0 in 0 W/m2
02:26 72 °F 62.4 °F 29.9 in WNW 2 mph 4 mph 72% 0 in 0 W/m2
02:31 72 °F 62.8 °F 29.9 in WNW 4.9 mph 6 mph 73% 0 in 0 W/m2
02:36 71.8 °F 62.6 °F 29.9 in WNW 0.9 mph 4 mph 73% 0 in 0 W/m2
02:41 71.8 °F 62.6 °F 29.9 in WNW 2 mph 8 mph 73% 0 in 0 W/m2
02:46 71.6 °F 63 °F 29.9 in West 4 mph 7 mph 74% 0 in 0 W/m2
02:51 71.4 °F 62.8 °F 29.9 in WNW 2.9 mph 6 mph 74% 0 in 0 W/m2
02:56 71.2 °F 62.6 °F 29.9 in West 4 mph 4 mph 74% 0 in 0 W/m2
03:01 71.2 °F 63 °F 29.9 in West 2.9 mph 3 mph 75% 0 in 0 W/m2
03:06 71.1 °F 62.8 °F 29.9 in WSW 2.9 mph 3 mph 75% 0 in 0 W/m2
03:11 71.1 °F 62.8 °F 29.9 in West 2.9 mph 7 mph 75% 0 in 0 W/m2
03:17 71.1 °F 62.8 °F 29.9 in WSW 2.9 mph 6 mph 75% 0 in 0 W/m2
03:22 71.1 °F 62.8 °F 29.9 in WSW 4.9 mph 7 mph 75% 0 in 0 W/m2
03:27 71.1 °F 62.8 °F 29.9 in WSW 0.9 mph 3 mph 75% 0 in 0 W/m2
03:32 71.1 °F 63.1 °F 29.9 in West 2 mph 6 mph 76% 0 in 0 W/m2
03:37 70.9 °F 63 °F 29.9 in West 2.9 mph 4 mph 76% 0 in 0 W/m2
03:42 70.7 °F 63.1 °F 29.9 in NW 4 mph 6 mph 77% 0 in 0 W/m2
03:47 70.5 °F 63 °F 29.9 in WNW 2 mph 4 mph 77% 0 in 0 W/m2
03:52 70.3 °F 63.1 °F 29.9 in West 6 mph 6 mph 78% 0 in 0 W/m2
03:57 70.3 °F 63.1 °F 29.9 in West 2.9 mph 6 mph 78% 0 in 0 W/m2
04:02 70.2 °F 63 °F 29.9 in NW 4.9 mph 6 mph 78% 0 in 0 W/m2
04:07 70 °F 63.1 °F 29.9 in West 2.9 mph 6 mph 79% 0 in 0 W/m2
04:12 69.8 °F 63.3 °F 29.9 in West 6.9 mph 7 mph 80% 0 in 0 W/m2
04:17 69.3 °F 63.5 °F 29.9 in West 2 mph 8 mph 82% 0 in 0 W/m2
04:22 68.7 °F 63.7 °F 29.9 in West 2.9 mph 3 mph 84% 0 in 0 W/m2
04:27 68.4 °F 63.3 °F 29.9 in SW 2.9 mph 4 mph 84% 0 in 0 W/m2
04:32 67.8 °F 63.1 °F 29.9 in West 6.9 mph 7 mph 85% 0 in 0 W/m2
04:37 67.8 °F 63.5 °F 29.9 in West 2.9 mph 4 mph 86% 0 in 0 W/m2
04:42 67.8 °F 63.1 °F 29.9 in WNW 2.9 mph 6 mph 85% 0 in 0 W/m2
04:47 68.2 °F 63.5 °F 29.9 in WSW 4.9 mph 8 mph 85% 0 in 0 W/m2
04:52 68.2 °F 63.1 °F 29.9 in WSW 6.9 mph 11 mph 84% 0 in 0 W/m2
04:57 68.2 °F 63.1 °F 29.9 in WNW 6.9 mph 7 mph 84% 0 in 0 W/m2
05:02 68.2 °F 62.8 °F 29.9 in West 6 mph 11 mph 83% 0 in 0 W/m2
05:07 68.2 °F 62.8 °F 29.9 in West 2.9 mph 9 mph 83% 0 in 0 W/m2
05:12 68.2 °F 62.8 °F 29.9 in West 4 mph 10 mph 83% 0 in 0 W/m2
05:17 68 °F 62.6 °F 29.9 in West 2.9 mph 7 mph 83% 0 in 0 W/m2
05:22 67.8 °F 62.4 °F 29.9 in NW 0.9 mph 4 mph 83% 0 in 0 W/m2
05:27 67.8 °F 62.8 °F 29.9 in NW 2.9 mph 4 mph 84% 0 in 0 W/m2
05:32 67.6 °F 62.6 °F 29.9 in West 4 mph 6 mph 84% 0 in 0 W/m2
05:37 67.6 °F 62.6 °F 29.9 in West 2.9 mph 4 mph 84% 0 in 0 W/m2
05:42 67.6 °F 62.6 °F 29.9 in West 2.9 mph 6 mph 84% 0 in 0 W/m2
05:47 67.6 °F 62.6 °F 29.9 in West 2.9 mph 3 mph 84% 0 in 0 W/m2
05:52 67.5 °F 62.4 °F 29.9 in West 2 mph 5 mph 84% 0 in 0 W/m2
05:57 67.5 °F 62.4 °F 29.9 in West 2.9 mph 7 mph 84% 0 in 0 W/m2
06:02 67.6 °F 62.2 °F 29.9 in West 4 mph 8 mph 83% 0 in 0 W/m2
06:12 67.6 °F 61.9 °F 29.9 in WSW 4 mph 8 mph 82% 0 in 0 W/m2
06:17 67.6 °F 61.5 °F 29.9 in West 2.9 mph 6 mph 81% 0 in 0 W/m2
06:22 67.6 °F 61.5 °F 29.9 in West 2 mph 6 mph 81% 0 in 0 W/m2
06:32 67.5 °F 61.3 °F 29.9 in West 4 mph 5 mph 81% 0 in 9 W/m2
06:37 67.3 °F 61.2 °F 29.9 in West 2 mph 3 mph 81% 0 in 12 W/m2
06:42 67.1 °F 61.2 °F 29.9 in NW 2 mph 5 mph 81% 0 in 14 W/m2
06:47 66.9 °F 61 °F 29.9 in West 2.9 mph 7 mph 81% 0 in 19 W/m2
06:52 66.9 °F 60.6 °F 29.9 in WNW 2.9 mph 5 mph 80% 0 in 21 W/m2
06:57 66.9 °F 60.6 °F 29.9 in WSW 2.9 mph 3 mph 80% 0 in 23 W/m2
07:02 66.7 °F 60.4 °F 29.9 in West 2 mph 3 mph 80% 0 in 23 W/m2
07:07 66.7 °F 60.4 °F 29.9 in West 2 mph 4 mph 80% 0 in 25 W/m2
07:12 66.7 °F 60.4 °F 29.9 in West 4 mph 4 mph 80% 0 in 26 W/m2
07:23 66.7 °F 60.1 °F 29.9 in West 2.9 mph 6 mph 79% 0 in 30 W/m2
07:28 66.7 °F 60.1 °F 29.9 in West 2.9 mph 3 mph 79% 0 in 33 W/m2
07:33 66.7 °F 60.1 °F 29.9 in WSW 2 mph 6 mph 79% 0 in 35 W/m2
07:38 66.7 °F 60.1 °F 29.9 in West 2 mph 3 mph 79% 0 in 40 W/m2
07:43 66.7 °F 60.1 °F 29.9 in WNW 2 mph 4 mph 79% 0 in 46 W/m2
07:48 66.7 °F 60.1 °F 29.9 in NW 2 mph 3 mph 79% 0 in 49 W/m2
07:58 66.9 °F 60.3 °F 29.9 in WNW 0.9 mph 3 mph 79% 0 in 77 W/m2
08:03 66.9 °F 60.3 °F 29.9 in WNW 2 mph 4 mph 79% 0 in 84 W/m2
08:08 67.1 °F 60.4 °F 29.9 in West 2 mph 3 mph 79% 0 in 93 W/m2
08:13 67.3 °F 60.3 °F 29.9 in WNW 2 mph 3 mph 78% 0 in 104 W/m2
08:18 67.5 °F 60.4 °F 29.9 in WNW 2.9 mph 3 mph 78% 0 in 113 W/m2
08:23 67.5 °F 60.1 °F 29.9 in West 2.9 mph 8 mph 77% 0 in 114 W/m2
08:28 67.5 °F 60.1 °F 29.9 in WNW 2.9 mph 7 mph 77% 0 in 107 W/m2
08:33 67.3 °F 59.9 °F 29.9 in West 2.9 mph 8 mph 77% 0 in 102 W/m2
08:38 67.3 °F 59.9 °F 29.9 in WNW 4 mph 8 mph 77% 0 in 111 W/m2
08:43 67.3 °F 59.9 °F 29.9 in West 2.9 mph 8 mph 77% 0 in 121 W/m2
08:48 67.3 °F 59.5 °F 29.9 in West 6 mph 7 mph 76% 0 in 135 W/m2
08:54 67.1 °F 59.4 °F 29.9 in West 6 mph 9 mph 76% 0 in 144 W/m2
08:59 66.9 °F 59.5 °F 29.9 in West 6 mph 10 mph 77% 0 in 137 W/m2
09:04 66.9 °F 59.5 °F 29.9 in West 2.9 mph 7 mph 77% 0 in 127 W/m2
09:09 66.9 °F 59.5 °F 29.9 in WSW 6.9 mph 7 mph 77% 0 in 130 W/m2
09:14 66.7 °F 59.4 °F 29.9 in WNW 2 mph 7 mph 77% 0 in 149 W/m2
09:19 66.9 °F 59.5 °F 29.9 in WNW 2.9 mph 4 mph 77% 0 in 158 W/m2
09:24 66.9 °F 59.2 °F 29.9 in WSW 2 mph 5 mph 76% 0 in 155 W/m2
09:29 66.9 °F 59.2 °F 29.9 in WNW 0.9 mph 4 mph 76% 0 in 162 W/m2
09:34 67.3 °F 59 °F 29.9 in SW 2.9 mph 8 mph 75% 0 in 181 W/m2
09:39 67.5 °F 58.8 °F 30 in WSW 2.9 mph 7 mph 74% 0 in 211 W/m2
09:44 67.6 °F 58.6 °F 30 in WNW 4 mph 9 mph 73% 0 in 218 W/m2
09:49 67.6 °F 57.9 °F 30 in NW 4.9 mph 8 mph 71% 0 in 239 W/m2
09:54 67.8 °F 57.7 °F 30 in NW 4 mph 8 mph 70% 0 in 262 W/m2
09:59 68.2 °F 58.1 °F 30 in NNW 2.9 mph 6 mph 70% 0 in 306 W/m2
10:04 68.5 °F 58.3 °F 30 in West 4 mph 5 mph 70% 0 in 353 W/m2
10:09 68.9 °F 58.3 °F 30 in WNW 2.9 mph 4 mph 69% 0 in 302 W/m2
10:14 69.3 °F 58.6 °F 30 in WNW 4 mph 6 mph 69% 0 in 250 W/m2
10:19 69.1 °F 58.8 °F 30 in WSW 4.9 mph 6 mph 70% 0 in 206 W/m2
10:24 68.7 °F 58.5 °F 30 in WNW 6.9 mph 7 mph 70% 0 in 206 W/m2
10:29 68.7 °F 58.5 °F 30 in West 2 mph 8 mph 70% 0 in 221 W/m2
10:34 68.7 °F 58.1 °F 30 in WNW 4 mph 5 mph 69% 0 in 237 W/m2
10:39 68.9 °F 57.9 °F 30 in Calm   7 mph 68% 0 in 246 W/m2
10:44 69.3 °F 58.3 °F 30 in WNW 2 mph 3 mph 68% 0 in 271 W/m2
10:49 69.4 °F 57.6 °F 30 in West 8.1 mph 8 mph 66% 0 in 364 W/m2
10:54 69.4 °F 57.2 °F 30 in West 6 mph 8 mph 65% 0 in 355 W/m2
10:59 69.4 °F 56.7 °F 30 in West 4 mph 8 mph 64% 0 in 315 W/m2
11:04 69.4 °F 56.7 °F 30 in WNW 4.9 mph 8 mph 64% 0 in 281 W/m2
11:09 69.6 °F 56.5 °F 30 in West 4 mph 4 mph 63% 0 in 359 W/m2
11:14 69.8 °F 56.7 °F 30 in NW 4.9 mph 7 mph 63% 0 in 485 W/m2
11:19 70.2 °F 57 °F 30 in West 6 mph 7 mph 63% 0 in 519 W/m2
11:24 70.5 °F 57.4 °F 30 in SW 6 mph 9 mph 63% 0 in 563 W/m2
11:29 70.5 °F 56.8 °F 30 in WNW 4.9 mph 10 mph 62% 0 in 526 W/m2
11:34 70.9 °F 56.3 °F 30 in NW 6.9 mph 11 mph 60% 0 in 561 W/m2
11:39 70.9 °F 56.8 °F 30 in West 4 mph 14 mph 61% 0 in 694 W/m2
11:49 72.1 °F 56.5 °F 30 in West 4 mph 11 mph 58% 0 in 759 W/m2
11:54 72.3 °F 57.7 °F 30 in West 2.9 mph 6 mph 60% 0 in 659 W/m2
11:59 73 °F 56.8 °F 30 in WNW 4 mph 11 mph 57% 0 in 573 W/m2
12:04 73 °F 56.8 °F 30 in NW 2.9 mph 9 mph 57% 0 in 489 W/m2
12:09 72.7 °F 56.1 °F 30 in WSW 10.1 mph 11 mph 56% 0 in 654 W/m2
12:14 72.7 °F 56.1 °F 30 in West 4 mph 9 mph 56% 0 in 589 W/m2
12:19 72.9 °F 55.8 °F 30 in West 4 mph 9 mph 55% 0 in 833 W/m2
12:24 72.9 °F 55.8 °F 30 in WNW 4.9 mph 9 mph 55% 0 in 615 W/m2
12:29 73.2 °F 56.1 °F 30 in WSW 6.9 mph 11 mph 55% 0 in 881 W/m2
12:34 73.2 °F 55.6 °F 30 in WSW 8.1 mph 12 mph 54% 0 in 689 W/m2
12:39 73.6 °F 55.4 °F 30 in WNW 4.9 mph 10 mph 53% 0 in 891 W/m2
12:44 74.1 °F 56.5 °F 30 in NW 4.9 mph 12 mph 54% 0 in 680 W/m2
12:49 74.1 °F 54.9 °F 30 in West 8.1 mph 12 mph 51% 0 in 503 W/m2
12:54 74.1 °F 54.9 °F 30 in WNW 4 mph 10 mph 51% 0 in 849 W/m2
12:59 74.5 °F 55.2 °F 30 in NNW 6 mph 15 mph 51% 0 in 846 W/m2
13:04 74.5 °F 55.8 °F 29.9 in WNW 2.9 mph 8 mph 52% 0 in 933 W/m2
13:09 74.8 °F 55.6 °F 30 in NW 6.9 mph 15 mph 51% 0 in 835 W/m2
13:14 75.2 °F 55.2 °F 29.9 in West 4 mph 9 mph 50% 0 in 527 W/m2
13:19 75.6 °F 55.6 °F 29.9 in West 0.9 mph 11 mph 50% 0 in 812 W/m2
13:24 75.6 °F 54 °F 29.9 in WNW 11 mph 11 mph 47% 0 in 865 W/m2
13:30 75 °F 54 °F 29.9 in WSW 10.1 mph 13 mph 48% 0 in 823 W/m2
13:35 75 °F 54 °F 29.9 in West 2 mph 11 mph 48% 0 in 882 W/m2
13:40 75 °F 54 °F 29.9 in NW 4 mph 13 mph 48% 0 in 874 W/m2
13:45 75.7 °F 54.7 °F 29.9 in WSW 10.1 mph 13 mph 48% 0 in 879 W/m2
13:50 75.4 °F 53.8 °F 29.9 in North 11 mph 11 mph 47% 0 in 823 W/m2
13:55 75.7 °F 54.1 °F 29.9 in WSW 2.9 mph 14 mph 47% 0 in 842 W/m2
14:00 75.9 °F 53.6 °F 29.9 in West 11 mph 14 mph 46% 0 in 867 W/m2
14:05 76.3 °F 54.5 °F 29.9 in SSW 6 mph 10 mph 47% 0 in 861 W/m2
14:10 76.5 °F 54.7 °F 29.9 in WNW 6.9 mph 14 mph 47% 0 in 856 W/m2
14:15 76.3 °F 54.5 °F 29.9 in WSW 4.9 mph 11 mph 47% 0 in 853 W/m2
14:20 75.9 °F 54.9 °F 29.9 in WSW 4.9 mph 13 mph 48% 0 in 849 W/m2
14:25 76.6 °F 53.8 °F 29.9 in WSW 2.9 mph 9 mph 45% 0 in 849 W/m2
14:30 77.4 °F 53.8 °F 29.9 in WNW 6.9 mph 9 mph 44% 0 in 847 W/m2
14:35 77 °F 51.4 °F 29.9 in NNW 4.9 mph 11 mph 41% 0 in 847 W/m2
14:40 76.8 °F 51.3 °F 29.9 in SW 10.1 mph 12 mph 41% 0 in 847 W/m2
14:45 76.5 °F 51.1 °F 29.9 in WNW 6.9 mph 8 mph 41% 0 in 842 W/m2
14:50 76.5 °F 52.3 °F 29.9 in WSW 12.1 mph 12 mph 43% 0 in 837 W/m2
14:55 76.8 °F 53.2 °F 29.9 in WNW 13 mph 13 mph 44% 0 in 835 W/m2
15:01 77.4 °F 51.8 °F 29.9 in West 6.9 mph 15 mph 41% 0 in 830 W/m2
15:06 77.2 °F 52.3 °F 29.9 in West 8.1 mph 11 mph 42% 0 in 807 W/m2
15:11 77.4 °F 51.8 °F 29.9 in West 2.9 mph 3 mph 41% 0 in 805 W/m2
15:16 77.7 °F 52.9 °F 29.9 in West 6.9 mph 9 mph 42% 0 in 800 W/m2
15:21 78.1 °F 52.5 °F 29.9 in NW 8.9 mph 11 mph 41% 0 in 791 W/m2
15:26 77.4 °F 51.1 °F 29.9 in West 6 mph 11 mph 40% 0 in 770 W/m2
15:31 77.2 °F 51.1 °F 29.9 in NW 8.1 mph 9 mph 40% 0 in 708 W/m2
15:36 77.2 °F 51.6 °F 29.9 in NW 8.9 mph 12 mph 41% 0 in 668 W/m2
15:41 77.2 °F 51.6 °F 29.9 in NNW 6 mph 15 mph 41% 0 in 758 W/m2
15:46 77.4 °F 51.8 °F 29.9 in West 6 mph 14 mph 41% 0 in 754 W/m2
15:51 77.4 °F 53.1 °F 29.9 in NW 4 mph 15 mph 43% 0 in 759 W/m2
15:56 77.4 °F 53.8 °F 29.9 in WSW 8.1 mph 12 mph 44% 0 in 724 W/m2
16:01 77.4 °F 53.8 °F 29.9 in WSW 0.9 mph 4 mph 44% 0 in 726 W/m2
16:06 77.4 °F 53.8 °F 29.9 in NW 2.9 mph 12 mph 44% 0 in 758 W/m2
16:11 77.7 °F 53.4 °F 29.9 in WNW 6 mph 7 mph 43% 0 in 714 W/m2
16:16 77.7 °F 54.1 °F 29.9 in SW 2.9 mph 11 mph 44% 0 in 694 W/m2
16:21 77.9 °F 54.3 °F 29.9 in West 4 mph 10 mph 44% 0 in 635 W/m2
16:26 78.1 °F 54.3 °F 29.9 in NW 8.1 mph 8 mph 44% 0 in 719 W/m2
16:31 77.7 °F 54.7 °F 29.9 in NW 4 mph 10 mph 45% 0 in 606 W/m2
16:36 77.4 °F 54.3 °F 29.9 in WNW 4 mph 8 mph 45% 0 in 719 W/m2
16:41 77.5 °F 53.2 °F 29.9 in WSW 2 mph 7 mph 43% 0 in 613 W/m2
16:47 77.4 °F 53.8 °F 29.9 in West 6 mph 7 mph 44% 0 in 207 W/m2
16:52 77.2 °F 54.1 °F 29.9 in WSW 4.9 mph 9 mph 45% 0 in 211 W/m2
16:57 76.8 °F 54.5 °F 29.9 in WNW 4.9 mph 7 mph 46% 0 in 202 W/m2
17:02 77.2 °F 54.1 °F 29.9 in NNW 2 mph 9 mph 45% 0 in 659 W/m2
17:07 77.4 °F 53.8 °F 29.9 in WNW 8.1 mph 11 mph 44% 0 in 185 W/m2
17:12 76.8 °F 53.8 °F 29.9 in WSW 4.9 mph 9 mph 45% 0 in 139 W/m2
17:17 76.5 °F 53.6 °F 29.9 in WSW 4 mph 10 mph 45% 0 in 461 W/m2
17:22 76.6 °F 53.8 °F 29.9 in NNW 4.9 mph 5 mph 45% 0 in 309 W/m2
17:27 77.2 °F 53.6 °F 29.9 in WNW 2.9 mph 10 mph 44% 0 in 663 W/m2
17:32 78.1 °F 53.1 °F 29.9 in WSW 4.9 mph 7 mph 42% 0 in 506 W/m2
17:37 77.7 °F 52.9 °F 29.9 in WNW 2.9 mph 7 mph 42% 0 in 559 W/m2
17:42 78.3 °F 52.7 °F 29.9 in West 6.9 mph 10 mph 41% 0 in 613 W/m2
17:47 78.1 °F 52.5 °F 29.9 in NNW 4.9 mph 10 mph 41% 0 in 645 W/m2
17:52 77.5 °F 52.7 °F 29.9 in West 2.9 mph 11 mph 42% 0 in 202 W/m2
17:57 77.2 °F 52.3 °F 29.9 in WNW 12 mph 12 mph 42% 0 in 401 W/m2
18:02 77.2 °F 52.3 °F 29.9 in West 6.9 mph 9 mph 42% 0 in 350 W/m2
18:07 77.2 °F 52.3 °F 29.9 in West 4 mph 6 mph 42% 0 in 359 W/m2
18:12 77.4 °F 52.5 °F 29.9 in North 2 mph 8 mph 42% 0 in 374 W/m2
18:17 77.7 °F 52.2 °F 29.9 in West 2 mph 4 mph 41% 0 in 475 W/m2
18:22 78.3 °F 53.2 °F 29.9 in WSW 4 mph 8 mph 42% 0 in 394 W/m2
18:27 78.1 °F 51.8 °F 29.9 in NNW 4 mph 8 mph 40% 0 in 287 W/m2
18:32 77.5 °F 52 °F 29.9 in NW 6 mph 6 mph 41% 0 in 274 W/m2
18:37 77.5 °F 52 °F 29.9 in North 4.9 mph 7 mph 41% 0 in 360 W/m2
18:42 77.4 °F 51.8 °F 29.9 in West 2.9 mph 8 mph 41% 0 in 255 W/m2
18:47 77.4 °F 52.5 °F 29.9 in West 4 mph 6 mph 42% 0 in 123 W/m2
18:52 76.8 °F 52 °F 29.9 in WNW 2 mph 6 mph 42% 0 in 156 W/m2
18:58 76.8 °F 52.7 °F 29.9 in Calm   3 mph 43% 0 in 229 W/m2
19:03 77 °F 52.2 °F 29.9 in NNW 0.9 mph 6 mph 42% 0 in 179 W/m2
19:08 76.8 °F 52 °F 29.9 in NNW 2 mph 4 mph 42% 0 in 144 W/m2
19:13 76.6 °F 52.5 °F 29.9 in NNW 4 mph 4 mph 43% 0 in 176 W/m2
19:18 77 °F 52.2 °F 29.9 in NNE 2.9 mph 4 mph 42% 0 in 262 W/m2
19:23 77.4 °F 52.5 °F 29.9 in WNW 4.9 mph 8 mph 42% 0 in 209 W/m2
19:28 77.4 °F 52.5 °F 29.9 in WSW 6.9 mph 7 mph 42% 0 in 148 W/m2
19:33 76.8 °F 52.7 °F 29.9 in WNW 2 mph 6 mph 43% 0 in 114 W/m2
19:38 76.6 °F 53.1 °F 29.9 in WNW 2.9 mph 5 mph 44% 0 in 172 W/m2
19:43 76.5 °F 52.9 °F 29.9 in West 6 mph 6 mph 44% 0 in 97 W/m2
19:48 76.1 °F 53.2 °F 29.9 in West 2 mph 3 mph 45% 0 in 76 W/m2
19:53 75.7 °F 52.3 °F 29.9 in NW 2.9 mph 6 mph 44% 0 in 79 W/m2
19:58 75.7 °F 52.9 °F 29.9 in West 4 mph 5 mph 45% 0 in 91 W/m2
20:03 75.6 °F 52.7 °F 29.9 in NW 2 mph 6 mph 45% 0 in 79 W/m2
20:08 75.7 °F 52.9 °F 29.9 in West 0.9 mph 6 mph 45% 0 in 114 W/m2
20:13 75.9 °F 52.5 °F 29.9 in NW 4 mph 5 mph 44% 0 in 100 W/m2
20:18 75.9 °F 53.1 °F 29.9 in West 2 mph 4 mph 45% 0 in 72 W/m2
20:23 75.4 °F 53.8 °F 29.9 in West 2 mph 3 mph 47% 0 in 47 W/m2
20:28 74.8 °F 53.2 °F 29.9 in West 2 mph 4 mph 47% 0 in 42 W/m2
20:33 74.1 °F 53.8 °F 29.9 in West 4 mph 4 mph 49% 0 in 40 W/m2
20:38 73.8 °F 53.4 °F 29.9 in West 2.9 mph 6 mph 49% 0 in 35 W/m2
20:43 73.6 °F 53.8 °F 29.9 in WNW 0.9 mph 4 mph 50% 0 in 26 W/m2
20:48 73.2 °F 53.4 °F 29.9 in NW 4.9 mph 5 mph 50% 0 in 23 W/m2
20:53 73 °F 53.8 °F 29.9 in WNW 2 mph 4 mph 51% 0 in 19 W/m2
20:58 72.7 °F 53.4 °F 29.9 in West 2 mph 4 mph 51% 0 in 16 W/m2
21:04 72.7 °F 53.4 °F 29.9 in West 2 mph 5 mph 51% 0 in 12 W/m2
21:09 72.3 °F 53.8 °F 29.9 in WNW 0.9 mph 4 mph 52% 0 in 5 W/m2
21:14 72.1 °F 53.6 °F 29.9 in WSW 2 mph 4 mph 52% 0 in 0 W/m2
21:19 71.8 °F 53.8 °F 29.9 in West 2.9 mph 4 mph 53% 0 in 0 W/m2
21:24 71.4 °F 53.4 °F 29.9 in West 2.9 mph 4 mph 53% 0 in 0 W/m2
21:29 71.2 °F 53.2 °F 29.9 in West 2 mph 4 mph 53% 0 in 0 W/m2
21:34 71.1 °F 53.1 °F 29.9 in NNW 0.9 mph 4 mph 53% 0 in 0 W/m2
21:39 71.1 °F 53.1 °F 29.9 in West 2.9 mph 3 mph 53% 0 in 0 W/m2
21:44 70.9 °F 52.9 °F 29.9 in West 2.9 mph 4 mph 53% 0 in 0 W/m2
21:49 70.7 °F 52.7 °F 29.9 in WSW 2 mph 4 mph 53% 0 in 0 W/m2
21:54 70.7 °F 52.2 °F 29.9 in WNW 2 mph 4 mph 52% 0 in 0 W/m2
21:59 70.7 °F 52.2 °F 29.9 in WNW 0.9 mph 5 mph 52% 0 in 0 W/m2
22:04 70.5 °F 52.5 °F 29.9 in West 2 mph 2 mph 53% 0 in 0 W/m2
22:09 70.3 °F 52.3 °F 29.9 in WNW 0.9 mph 4 mph 53% 0 in 0 W/m2
22:14 70.2 °F 52.7 °F 29.9 in West 2 mph 2 mph 54% 0 in 0 W/m2
22:20 69.8 °F 52.3 °F 29.9 in WNW 2 mph 4 mph 54% 0 in 0 W/m2
22:25 69.4 °F 52.5 °F 29.9 in WNW 2 mph 4 mph 55% 0 in 0 W/m2
22:30 69.4 °F 52.5 °F 29.9 in WNW 2 mph 4 mph 55% 0 in 0 W/m2
22:35 69.3 °F 52.9 °F 29.9 in WNW 2 mph 4 mph 56% 0 in 0 W/m2
22:40 69.3 °F 52.9 °F 29.9 in West 2.9 mph 3 mph 56% 0 in 0 W/m2
22:45 69.3 °F 53.4 °F 29.9 in West 0.9 mph 3 mph 57% 0 in 0 W/m2
22:50 68.9 °F 53.6 °F 29.9 in WSW 2.9 mph 4 mph 58% 0 in 0 W/m2
22:55 68.7 °F 53.8 °F 29.9 in West 2.9 mph 4 mph 59% 0 in 0 W/m2
23:00 68.5 °F 54.1 °F 29.9 in WSW 2 mph 3 mph 60% 0 in 0 W/m2
23:05 68.4 °F 54.3 °F 29.9 in WSW 2 mph 4 mph 61% 0 in 0 W/m2
23:10 68.2 °F 54.1 °F 29.9 in West 2 mph 2 mph 61% 0 in 0 W/m2
23:15 67.8 °F 54.3 °F 29.9 in WSW 2 mph 4 mph 62% 0 in 0 W/m2
23:20 67.6 °F 54.1 °F 29.9 in WSW 2 mph 3 mph 62% 0 in 0 W/m2
23:25 67.6 °F 54.7 °F 29.9 in WSW 2 mph 4 mph 63% 0 in 0 W/m2
23:30 67.5 °F 54.9 °F 29.9 in WSW 0.9 mph 2 mph 64% 0 in 0 W/m2
23:35 67.3 °F 54.7 °F 29.9 in WSW 0.9 mph 3 mph 64% 0 in 0 W/m2
23:40 67.1 °F 54.9 °F 29.9 in WNW 0.9 mph 3 mph 65% 0 in 0 W/m2
23:45 66.9 °F 54.9 °F 29.9 in WSW 0.9 mph 2 mph 65% 0 in 0 W/m2
23:50 66.7 °F 55 °F 29.9 in WSW 2.9 mph 3 mph 66% 0 in 0 W/m2
23:55 66.7 °F 55 °F 29.9 in WSW 2 mph 3 mph 66% 0 in 0 W/m2
Juneau County Weather
Compliments of Weather Underground - 4 mb